Weather Roundup
Issued by NWS

Home | Current Version | Previous Version | Text Only | Print | Product List | Glossary On
Versions: 1 2 3 4 5 6 7 8 9 10 11 12 13 14 15 16 17 18 19 20 21 22 23 24 25 26 27 28 29 30 31 32 33 34 35 36 37 38 39 40 41 42 43 44 45 46 47 48 49 50
671
NZUS93 KARX 220659
HRRWXR

CURRENT HOURLY OBSERVATIONS ACROSS
MUCH OF THE UPPER MISSISSIPPI VALLEY
NATIONAL WEATHER SERVICE LA CROSSE WI
200 AM CDT FRI SEP 22 2017


...SOUTHEAST MINNESOTA...


CITY           SKY/WX    TMP DP  RH WIND       PRES   REMARKS
ROCHESTER      CLEAR     72  68  87 S12       29.91S
ROCHESTER/MAYO FAIR      73  69  86 SE8       29.91S
WINONA         CLEAR     75  68  78 SE3       29.92R
AUSTIN         CLEAR     73  66  78 S7        29.90R
ALBERT LEA     CLEAR     77  70  78 S9        29.87S
DODGE CENTER   MOCLDY    73  66  78 S10G16    29.90S
PRESTON        CLEAR     72  67  84 S14       29.93S
OWATONNA       CLEAR     75  70  83 S12G18    29.86F
FARIBAULT      PTCLDY    75  70  83 SE10      29.86S
$$

...ELSEWHERE IN MINNESOTA...


CITY           SKY/WX    TMP DP  RH WIND       PRES   REMARKS
MINNEAPOLIS    PTCLDY    76  70  82 SE12      29.84S
INTNL FALLS    CLOUDY    62  60  93 NW5       29.82R
DULUTH         CLOUDY    58  57  97 SE12      29.88S
RED WING       CLOUDY    75  64  69 SE9       29.87F
REDWOOD FALLS  CLEAR     74  69  85 SE12G20   29.75F
MANKATO        CLEAR     76  70  82 S12       29.82F
WORTHINGTON    CLEAR     74  71  91 S14G21    29.80S
FAIRMONT       CLEAR     75  70  84 S14       29.82S
$$

...SOUTHWEST WISCONSIN...


CITY           SKY/WX    TMP DP  RH WIND       PRES   REMARKS
LA CROSSE      NOT AVBL
PRAIRIE DU CHI CLEAR     78  66  65 SE8       29.95R
BOSCOBEL       CLEAR     69  66  90 CALM      29.97S
LONE ROCK      CLEAR     70  68  93 E7        29.98S
PLATTEVILLE    CLEAR     72  70  93 SE7       30.00S
FORT MC COY    CLEAR     75  67  76 S6        29.96R
MAUSTON-NEW LI SUNNY     73  67  83 S5        29.97R
VIROQUA        FAIR      71  69  93 CALM      29.98S
WIS DELLS      CLEAR     73  64  73 S7        29.99S
$$

...ELSEWHERE IN WISCONSIN...


CITY           SKY/WX    TMP DP  RH WIND       PRES   REMARKS
MILWAUKEE      CLEAR     72  69  90 CALM      30.02R FOG
MADISON        CLEAR     73  66  78 S6        30.00S
GREEN BAY      CLEAR     66  66 100 S3        30.00S
EAU CLAIRE     MOCLDY    74  66  76 S12       29.91S
BLACK RVR FLS  FAIR      63  63 100 CALM      29.95R
MEDFORD        MOCLDY    67  64  89 S6        29.98S
WAUSAU         CLEAR     66  65  96 SE5       29.98S
WIS RAPIDS     CLEAR     70  66  87 S5        29.99S
MARSHFIELD     CLEAR     67  63  87 S7        29.98S
RICE LAKE      CLEAR     69  64  83 SE6       29.92R
$$

...NORTHEAST IOWA...


CITY           SKY/WX    TMP DP  RH WIND       PRES   REMARKS
WATERLOO       CLEAR     74  70  87 S13       29.91R
DUBUQUE        CLEAR     72  68  87 S12       29.99R
DECORAH        CLEAR     77  70  78 VRB7G14   29.94R
MASON CITY     CLEAR     72  69  90 SE9       29.91R
CHARLES CITY   CLEAR     75  72  88 S12G20    29.92S
OELWEIN        CLEAR     75  72  88 S12G18    29.95S
$$

...ELSEWHERE IN IOWA...


CITY           SKY/WX    TMP DP  RH WIND       PRES   REMARKS
DES MOINES     PTCLDY    78  69  73 S8        29.89S
IOWA CITY      CLEAR     72  69  90 SE5       29.97R
FORT DODGE     CLEAR     78  70  76 S13       29.86S
MARSHALLTOWN   CLEAR     75  71  87 SE9       29.91S
CEDAR RAPIDS   PTCLDY    75  70  84 S9        29.95R
$$

...NORTHERN ILLINOIS...


CITY           SKY/WX    TMP DP  RH WIND       PRES   REMARKS
CHICAGO-OHARE  CLOUDY    77  67  71 S6        30.02S
CHICAGO-MIDWAY CLOUDY    81  68  64 S8        30.03R
MOLINE         CLEAR     74  67  78 S7        29.98R
ROCKFORD       PTCLDY    71  68  90 CALM      30.03R
PEORIA         CLEAR     76  68  76 S7        30.02R
$$

NOTE: "FAIR" INDICATES FEW OR NO CLOUDS BELOW 12,000 FEET WITH NO
SIGNIFICANT WEATHER AND/OR OBSTRUCTIONS TO VISIBILITY. WIND
SPEEDS ARE IN MILES-PER-HOUR.




USA.gov is the U.S. government's official web portal to all federal, state and local government web resources and services.